CDT,Max TemperatureF,Mean TemperatureF,Min TemperatureF,Max Dew PointF,MeanDew PointF,Min DewpointF,Max Humidity, Mean Humidity, Min Humidity, Max Sea Level PressureIn, Mean Sea Level PressureIn, Min Sea Level PressureIn, Max VisibilityMiles, Mean VisibilityMiles, Min VisibilityMiles, Max Wind SpeedMPH, Mean Wind SpeedMPH, Max Gust SpeedMPH,PrecipitationIn, CloudCover, Events, WindDirDegrees
2014-5-1,62,47,32,28,22,19,59,35,11,30.18,30.11,30.03,10,10,10,21,13,34,0.00,4,,320
2014-5-2,77,54,30,29,23,20,67,33,7,30.08,29.97,29.85,10,10,10,17,8,21,0.00,0,,270
2014-5-3,91,68,46,34,28,24,46,21,5,29.88,29.82,29.76,10,10,10,18,10,24,0.00,0,,215
2014-5-4,98,76,53,47,32,25,46,23,4,29.76,29.68,29.59,10,10,10,16,12,23,0.00,0,,226
2014-5-5,84,68,51,48,44,23,80,45,16,29.81,29.68,29.56,10,10,10,18,11,29,0.00,0,,27
2014-5-6,96,70,44,48,32,12,93,32,4,29.68,29.49,29.38,10,10,5,28,11,39,0.00,0,,227
2014-5-7,93,74,55,58,32,19,67,24,4,29.59,29.50,29.44,10,10,7,30,14,37,0.00,0,Rain-Thunderstorm,199
2014-5-8,73,63,53,59,42,30,81,46,14,29.85,29.70,29.55,10,10,9,26,18,33,0.00,1,,309
2014-5-9,77,57,37,39,36,29,83,43,9,30.00,29.86,29.73,10,10,9,22,12,34,0.00,2,Rain,185
2014-5-10,87,66,46,49,40,28,83,39,6,29.78,29.69,29.54,10,10,7,16,9,17,0.00,0,,119
2014-5-11,91,70,50,62,55,45,93,66,15,29.74,29.50,29.35,10,8,0,34,19,51,1.46,5,Fog-Rain-Thunderstorm,201
2014-5-12,52,47,41,46,38,33,93,72,45,30.25,29.99,29.70,10,9,3,31,21,44,0.00,7,Rain,342
2014-5-13,61,48,35,34,28,24,76,48,16,30.37,30.31,30.25,10,10,10,24,13,32,0.00,3,,337
2014-5-14,66,51,36,36,30,24,79,48,12,30.36,30.29,30.20,10,10,10,18,10,24,0.00,2,,335
2014-5-15,64,50,37,40,35,32,79,54,23,30.26,30.19,30.12,10,10,10,12,8,21,0.00,1,,9
2014-5-16,79,61,43,47,39,35,77,50,16,30.17,30.01,29.88,10,10,9,26,9,40,0.00,2,,166
2014-5-17,66,54,41,43,41,37,93,73,31,30.16,30.10,30.04,10,7,0,18,9,29,0.00,5,Fog-Thunderstorm,99
2014-5-18,82,65,48,55,48,39,89,58,27,30.13,29.95,29.72,10,10,5,28,16,38,0.00,2,Rain-Thunderstorm,148
2014-5-19,98,80,63,54,37,11,70,32,4,29.70,29.59,29.50,10,10,10,25,20,33,0.00,0,,198
2014-5-20,91,76,62,56,49,23,68,39,15,29.81,29.68,29.56,10,10,10,20,14,26,0.00,0,,263
2014-5-21,89,73,57,59,55,41,90,56,11,30.07,29.86,29.74,10,8,2,18,12,28,0.08,1,Rain-Thunderstorm,71
2014-5-22,88,72,57,58,55,52,87,59,22,30.16,30.01,29.91,10,9,2,29,12,45,0.01,2,Thunderstorm,34
2014-5-23,75,67,59,61,56,52,88,72,38,30.17,30.06,29.98,10,10,7,22,12,36,0.01,5,Rain-Thunderstorm,203
2014-5-24,79,70,60,61,58,54,94,73,34,30.08,29.98,29.86,10,8,4,15,4,20,0.00,6,,165
2014-5-25,78,69,60,61,57,52,94,70,34,30.00,29.91,29.85,10,9,2,18,11,22,0.08,3,Rain,187
2014-5-26,79,66,54,57,52,45,94,60,23,30.02,29.92,29.86,10,10,7,14,9,21,0.00,2,,176
2014-5-27,86,70,55,57,53,49,87,56,23,29.95,29.92,29.89,10,10,7,10,8,,0.00,1,,136
2014-5-28,91,74,57,57,53,46,87,51,12,30.04,29.95,29.90,10,10,7,18,8,22,0.00,0,,183
2014-5-29,93,76,60,56,51,44,78,42,12,30.02,29.91,29.83,10,10,8,13,8,20,0.00,1,,148
2014-5-30,90,76,62,61,55,48,81,50,15,30.04,29.92,29.86,10,10,7,15,11,23,0.00,1,Rain,134
2014-5-31,89,76,64,63,58,53,90,57,22,30.05,29.93,29.82,10,10,7,17,10,22,0.03,3,Rain,164